NOAA 17 DEB, 48744

Orbit data source: Space-Track

NOAA 17 DEB, 48744 is space debris in SSO originally from a launch on Mon, 24 Jun 2002 UTC launched from the Air Force Western Test Range (AFWTR). Debris objects in space refer to the collection of defunct objects orbiting the Earth. Examples of debris include non-operational satellites, rocket bodies, and fragments generated from explosions, collisions, or faulty payload assembly.

Loading next visibility...
Identifier
48744, 2002-032CD
Orbit
SSO
Country
Flag of USUS
Related business
Manufacturer
Unknown
Mission
Spacecraft
Bus & Motor
Unknown
Mass
Unknown
Launch date (UTC)
2002-06-24 (24 years ago)
Launch vehicle
Unknown
Launch site
Air Force Western Test Range (AFWTR)
Object type
Payload
Rocket body
Debris
Shape & HBR
Unknown shape, 0.1 m
Radar Cross Section
Medium (>0.1 m² and <1 m²)

Expand to show TLE details & history
Last TLE update: 2 days ago

TLE from 2 days ago
0 NOAA 17 DEB
1 48744U 02032CD  26171.01358513  .00003678  00000-0  97937-3 0  9999
2 48744  98.8962 191.6214 0011820 220.6664 139.3646 14.49114511274043
Epoch: 2026-06-20T00:19Z
TLE epoch observation values (Epoch: 2026-06-20T00:19:33.755Z)
Latitude
-0.00003°
Longitude
-81.50354°
Altitude
737.87 km
Speed
7.483 km/s
True Right ascension
12h 46m 29s
True Declination
0° 00' 00"
Sunlit
Object was in daylight at epoch
Visualization orbit readout
Latitude
Unknown
Longitude
Unknown
Altitude
Unknown
Speed
Unknown
Apparent Right ascension
Unknown
Apparent Declination
Unknown
Sunlit
N/A
Visualization observer readout
Local Sidereal Time
21:34:44
Azimuth
Unknown
Elevation
Unknown
Doppler factor
Unknown
Orbital elements
Apogee altitude
734.068 km
Perigee altitude
717.274 km
Semi-major axis
7,103.808 km
Eccentricity
0.00118
Inclination
98.8962°
RAAN
191.6214°
Arg. of periapsis
220.6664°
True anomaly
139.45271°
Mean anomaly
139.3646°
Eccentric anomaly
139.40867°
Mean motion
3.62499 °/min
Orbital period
99.31 mins
BSTAR
0.00097937
Loading maneuver chart data...
Computing Atmospheric mass density...

Documentation

Showing up to 5 results
|